Tucumcari, NM

7:52 AM MDT on September 30, 2016 (GMT -0600)
Tucumcari Municipal

Weather History for KTCC - November, 2013

Change the Weather History Date:

Thursday, November 21, 2013

  Actual Average Record
Temperature  
Mean Temperature 42 °F -  
Max Temperature 55 °F 59 °F 82 °F (1924)
Min Temperature 27 °F 31 °F 1 °F (1906)
Degree Days  
Heating Degree Days 24    
Moisture  
Dew Point 29 °F    
Average Humidity 61    
Maximum Humidity 71    
Minimum Humidity 53    
Precipitation  
Precipitation 0.00 in - - ()
Sea Level Pressure  
Sea Level Pressure 30.09 in    
Wind  
Wind Speed 16 mph (NE)    
Max Wind Speed 23 mph    
Max Gust Speed 32 mph    
Visibility 10 miles    
Events      
Averages and records for this station are not official NWS values.
T = Trace of Precipitation, MM = Missing Value Source: NWS Daily Summary

Daily Weather History Graph

Daily Weather History Graph

Search for Another Location

Airport or City:

Trip Planner

Search our weather history database for the weather conditions in past years. The results will help you decide how hot, cold, wet, or windy it might be!

Date:

Astronomy

Nov. 21, 2013 Rise Set
Actual Time 6:35 AM MST 4:45 PM MST
Civil Twilight 6:08 AM MST 5:12 PM MST
Nautical Twilight 5:37 AM MST 5:43 PM MST
Astronomical Twilight 5:06 AM MST 6:13 PM MST
Moon 8:22 PM MST (11/21) 9:44 AM MST (11/21)
Length of Visible Light 11h 04m
Length of Day
10h 09m
Waning Gibbous, 85% of the Moon is Illuminated
Nov 21
Waning Gibbous
Nov 25
Last Quarter
Dec 2
New
Dec 9
First Quarter
Dec 17
Full

Hourly Weather History & Observations

Time (MST) Temp. Windchill Dew Point Humidity Pressure Visibility Wind Dir Wind Speed Gust Speed Precip Events Conditions
12:53 AM 54.0 °F - 37.0 °F 53% 29.79 in 10.0 mi WSW 15.0 mph - N/A   Partly Cloudy
1:53 AM 54.0 °F - 37.0 °F 53% 29.79 in 10.0 mi WSW 15.0 mph - N/A   Partly Cloudy
2:53 AM 53.1 °F - 37.0 °F 55% 29.78 in 10.0 mi West 15.0 mph - N/A   Clear
3:53 AM 51.1 °F - 37.0 °F 59% 29.81 in 10.0 mi WSW 11.5 mph - N/A   Clear
4:53 AM 52.0 °F - 37.0 °F 57% 29.82 in 10.0 mi WSW 11.5 mph - N/A   Clear
5:53 AM 45.0 °F 42.6 °F 35.1 °F 68% 29.88 in 10.0 mi North 4.6 mph - N/A   Clear
6:53 AM 48.0 °F - 37.0 °F 66% 29.90 in 10.0 mi SSW 13.8 mph - N/A   Clear
7:53 AM 52.0 °F - 37.0 °F 57% 29.93 in 10.0 mi SW 11.5 mph - N/A   Clear
8:53 AM 55.0 °F - 37.9 °F 53% 29.97 in 10.0 mi NNW 10.4 mph - N/A   Clear
9:53 AM 50.0 °F - 37.0 °F 61% 30.02 in 10.0 mi ENE 21.9 mph 32.2 mph N/A   Clear
10:12 AM 44.1 °F 35.2 °F 35.1 °F 71% 30.11 in 10.0 mi NE 23.0 mph 29.9 mph N/A   Mostly Cloudy
10:53 AM 41.0 °F 32.2 °F 32.0 °F 70% 30.09 in 10.0 mi ENE 18.4 mph - N/A   Overcast
11:53 AM 39.9 °F 30.2 °F 30.0 °F 68% 30.10 in 10.0 mi NE 20.7 mph 25.3 mph N/A   Overcast
12:09 PM 41.0 °F 33.1 °F 30.0 °F 65% 30.14 in 10.0 mi ENE 15.0 mph - N/A   Overcast
12:53 PM 39.9 °F 31.1 °F 28.0 °F 63% 30.11 in 10.0 mi ENE 17.3 mph - N/A   Overcast
1:53 PM 39.0 °F 29.6 °F 26.1 °F 60% 30.09 in 10.0 mi ENE 18.4 mph - N/A   Overcast
2:53 PM 37.0 °F 27.4 °F 25.0 °F 62% 30.14 in 10.0 mi NE 17.3 mph - N/A   Overcast
3:53 PM 35.1 °F 23.8 °F 24.1 °F 64% 30.18 in 10.0 mi NE 20.7 mph - N/A   Overcast
4:53 PM 34.0 °F 23.0 °F 21.9 °F 61% 30.21 in 10.0 mi NE 18.4 mph 27.6 mph N/A   Overcast
5:53 PM 32.0 °F 19.8 °F 19.9 °F 61% 30.28 in 10.0 mi NE 20.7 mph 28.8 mph N/A   Overcast
6:53 PM 30.9 °F 19.1 °F 19.0 °F 61% 30.32 in 10.0 mi ENE 18.4 mph - N/A   Overcast
7:53 PM 30.0 °F 17.5 °F 17.1 °F 59% 30.35 in 10.0 mi ENE 19.6 mph - 0.00 in   Overcast
8:53 PM 28.9 °F 15.8 °F 17.1 °F 61% 30.35 in 10.0 mi ENE 20.7 mph 27.6 mph 0.00 in   Overcast
9:53 PM 28.0 °F 15.3 °F 17.1 °F 63% 30.39 in 10.0 mi NE 18.4 mph 25.3 mph N/A   Overcast
10:53 PM 28.0 °F 13.9 °F 15.1 °F 58% 30.43 in 10.0 mi NE 23.0 mph 29.9 mph N/A   Overcast
11:53 PM 27.0 °F 13.9 °F 16.0 °F 63% 30.45 in 10.0 mi NE 18.4 mph 28.8 mph 0.00 in   Overcast